TimeMDT,TemperatureF,Dew PointF,Humidity,Sea Level PressureIn,VisibilityMPH,Wind Direction,Wind SpeedMPH,Gust SpeedMPH,PrecipitationIn,Events,Conditions,WindDirDegrees,DateUTC
12:51 AM,77.0,75.2,94,29.89,6.0,ENE,5.8,-,N/A,,Scattered Clouds,70,2012-10-06 06:51:00
1:46 AM,75.2,73.4,94,29.88,6.0,ENE,5.8,-,N/A,,Partly Cloudy,70,2012-10-06 07:46:00
2:47 AM,75.2,73.4,94,29.87,5.0,North,6.9,-,N/A,,Partly Cloudy,10,2012-10-06 08:47:00
3:42 AM,75.2,73.4,94,29.86,5.0,North,6.9,-,N/A,,Clear,10,2012-10-06 09:42:00
4:45 AM,75.2,73.4,94,29.86,5.0,NE,5.8,-,N/A,,Clear,50,2012-10-06 10:45:00
5:48 AM,75.2,73.4,94,29.87,5.0,Calm,Calm,-,N/A,,Partly Cloudy,0,2012-10-06 11:48:00
6:48 AM,73.4,73.4,100,29.86,3.0,North,4.6,-,N/A,,Partly Cloudy,360,2012-10-06 12:48:00
7:47 AM,75.2,73.4,94,29.96,1.0,North,6.9,-,N/A,,Partly Cloudy,10,2012-10-06 13:47:00
8:13 AM,75.2,73.4,94,29.87,3.0,North,6.9,-,N/A,,Mostly Cloudy,10,2012-10-06 14:13:00
8:43 AM,77.0,75.2,94,29.87,4.0,NNW,6.9,-,N/A,,Partly Cloudy,340,2012-10-06 14:43:00
9:46 AM,80.6,77.0,89,29.87,5.0,NE,4.6,-,N/A,,Clear,40,2012-10-06 15:46:00
10:41 AM,84.2,75.2,74,29.87,7.0,WSW,4.6,-,N/A,,Scattered Clouds,240,2012-10-06 16:41:00
11:44 AM,86.0,75.2,70,29.85,7.0,SW,5.8,-,N/A,,Scattered Clouds,220,2012-10-06 17:44:00
12:44 PM,87.8,75.2,66,29.81,8.0,South,6.9,-,N/A,,Scattered Clouds,190,2012-10-06 18:44:00
1:42 PM,87.8,77.0,70,29.78,10.0,SW,11.5,-,N/A,,Scattered Clouds,220,2012-10-06 19:42:00
2:44 PM,87.8,75.2,66,29.77,10.0,SW,13.8,-,N/A,,Partly Cloudy,230,2012-10-06 20:44:00
3:45 PM,87.8,75.2,66,29.75,10.0,SW,11.5,-,N/A,,Partly Cloudy,230,2012-10-06 21:45:00
4:44 PM,84.2,75.2,74,29.75,10.0,SW,12.7,-,N/A,,Scattered Clouds,230,2012-10-06 22:44:00
5:44 PM,84.2,75.2,74,29.76,10.0,West,11.5,-,N/A,,Scattered Clouds,260,2012-10-06 23:44:00
6:43 PM,82.4,75.2,79,29.77,10.0,West,9.2,-,N/A,,Scattered Clouds,270,2012-10-07 00:43:00
7:45 PM,82.4,75.2,79,29.79,10.0,NNW,5.8,-,N/A,,Scattered Clouds,330,2012-10-07 01:45:00
8:44 PM,80.6,77.0,89,29.80,10.0,NW,5.8,-,N/A,,Scattered Clouds,320,2012-10-07 02:44:00
9:50 PM,80.6,75.2,84,29.82,10.0,NNE,4.6,-,N/A,,Mostly Cloudy,20,2012-10-07 03:50:00
10:50 PM,80.6,75.2,84,29.82,10.0,NW,5.8,-,N/A,,Scattered Clouds,310,2012-10-07 04:50:00
11:42 PM,78.8,75.2,89,29.82,10.0,NNW,5.8,-,N/A,,Scattered Clouds,330,2012-10-07 05:42:00